[[{"header":{"parameterUnit":"m.s-1","parameterCategory":1,"la1":30.2991,"la2":30.254,"lo1":-89.0895,"lo2":-89.0444,"dy":0.0017,"dx":0.0017,"nx":28,"ny":28,"refTime":"2024-05-16T21:00:00:Z","depth":0,"parameterNumber":2,"parameterNumberName":"U-component_of_WINDS"},"data":[0,0,0,0,0,0,0,0,0,0,0,0,0,0,0,0,0,0,0,0,0,0,0,0,0,0,0,0,0,0,0,0,0,0,0,0,0,0,0,0,0,0,0,0,0,0,0,0,0,0,0,0,0,0,0,0,0,0,-0.9321,-0.9322,0,-0.9408,-0.9409,-0.941,-0.9453,-0.9453,-0.9453,-0.9453,-0.9539,-0.9541,-0.9543,0,0,0,0,0,0,0,0,0,0,0,0,0,-0.919,-0.9192,-0.9321,-0.9322,-0.9323,-0.9408,-0.9409,-0.941,-0.9453,-0.9453,-0.9453,-0.9453,-0.9538,-0.9541,-0.9543,0,0,0,0,0,0,0,0,0,0,0,0,0,-0.9258,-0.9192,-0.9321,-0.9355,-0.9359,-0.9408,-0.9409,-0.9411,-0.9453,-0.9453,-0.9453,-0.9453,-0.9537,-0.954,-0.9544,-0.9565,0,0,-0.9554,-0.9556,0,0,0,0,0,0,0,0,-0.9254,-0.9263,-0.9349,-0.9353,-0.9357,-0.942,-0.9394,-0.9462,-0.9453,-0.9417,-0.9453,-0.9453,-0.9499,-0.9505,-0.9522,-0.9569,-0.9572,-0.9554,-0.9556,-0.9558,-0.9559,0,0,0,0,0,0,0,-0.925,-0.926,-0.9356,-0.935,-0.9355,-0.9365,-0.9375,-0.9407,-0.9457,-0.942,-0.9423,-0.9433,-0.9501,-0.9518,-0.9524,-0.9574,-0.9554,-0.9557,-0.9559,-0.9561,-0.9642,-0.9642,0,0,0,0,0,0,-0.924,-0.9255,-0.9353,-0.9358,-0.9305,-0.9367,-0.9378,-0.94,-0.9456,-0.9465,-0.9433,-0.9435,-0.9512,-0.952,-0.9527,-0.9556,-0.9558,-0.9561,-0.9563,-0.9642,-0.9642,-0.9642,0,0,0,0,0,0,-0.9237,-0.9248,-0.9349,-0.9308,-0.9321,-0.9369,-0.9393,-0.9401,-0.9418,-0.9466,-0.9475,-0.9442,-0.9513,-0.9522,-0.9555,-0.9559,-0.9563,-0.9566,-0.9642,-0.9642,-0.9642,-0.9613,0,0,0,0,0,0,-0.9233,-0.9247,-0.9256,-0.9308,-0.9324,-0.9377,-0.9393,-0.9403,-0.9425,-0.9428,-0.9477,-0.9485,-0.9513,-0.955,-0.9559,-0.9564,-0.9568,-0.9642,-0.9642,-0.9642,-0.9614,-0.9612,-0.9611,0,0,0,0,0,-0.9228,-0.9244,-0.9256,-0.9268,-0.9336,-0.9377,-0.9386,-0.9419,-0.9425,-0.9434,-0.9465,-0.9483,-0.9557,-0.9553,-0.9563,-0.957,-0.9642,-0.9642,-0.9642,-0.9614,-0.9612,-0.9611,0,0,0,0,0,0,-0.919,-0.9251,-0.9266,-0.9299,-0.9332,-0.9384,-0.9397,-0.9416,-0.9448,-0.945,-0.9489,-0.9499,-0.9529,-0.9552,-0.9546,-0.9593,-0.9601,-0.9604,-0.9577,-0.9575,-0.9573,-0.9567,-0.9571,0,0,0,0,0,-0.9186,-0.9215,-0.9266,-0.929,-0.9306,-0.9348,-0.9367,-0.939,-0.9426,-0.9441,-0.9474,-0.9508,-0.9538,-0.9558,-0.9589,-0.9617,-0.9628,-0.9627,-0.9625,-0.9623,-0.9625,-0.9642,-0.9642,-0.9643,-0.9643,-0.9643,0,0,-0.9177,-0.9213,-0.9229,-0.9283,-0.9312,-0.9341,-0.936,-0.9389,-0.9411,-0.9445,-0.9479,-0.9504,-0.9544,-0.9575,-0.959,-0.9595,-0.9627,-0.9624,-0.9622,-0.9625,-0.9642,-0.9642,-0.9641,-0.9643,-0.9643,-0.9643,0,0,-0.9175,-0.9206,-0.9229,-0.9258,-0.9302,-0.933,-0.9335,-0.9384,-0.9403,-0.9437,-0.9464,-0.9489,-0.9541,-0.9569,-0.9589,-0.9598,-0.9616,-0.9607,-0.9598,-0.9614,-0.9614,-0.9614,-0.9617,-0.9618,-0.9608,-0.9608,-0.9608,0,-0.9158,-0.9203,-0.9239,-0.9267,-0.9289,-0.9323,-0.9346,-0.9372,-0.9423,-0.9438,-0.9443,-0.951,-0.9539,-0.9577,-0.9579,-0.9595,-0.9602,-0.9601,-0.9611,-0.9612,-0.9612,-0.9616,-0.9617,-0.9606,-0.9607,-0.9607,-0.9607,0,-0.918,-0.921,-0.9224,-0.9274,-0.9298,-0.9323,-0.9362,-0.9382,-0.9403,-0.943,-0.9464,-0.95,-0.9539,-0.955,-0.957,-0.959,-0.9593,-0.9604,-0.9613,-0.961,-0.9614,-0.9616,-0.9604,-0.9605,-0.9605,-0.9606,0,0,-0.9157,-0.9226,-0.9231,-0.9254,-0.9304,-0.9328,-0.9355,-0.9394,-0.941,-0.9444,-0.9467,-0.9511,-0.9522,-0.9546,-0.9569,-0.9583,-0.9587,-0.9593,-0.9594,-0.9591,-0.9612,-0.9603,-0.9604,-0.9599,-0.96,-0.96,-0.9609,0,-0.9163,-0.9213,-0.9246,-0.9283,-0.9312,-0.9343,-0.9366,-0.9399,-0.9425,-0.9452,-0.9481,-0.9511,-0.9523,-0.9538,-0.9553,-0.9583,-0.9592,-0.9583,-0.9621,-0.9622,-0.961,-0.9606,-0.9597,-0.9604,-0.961,-0.9611,-0.9611,0,-0.9176,-0.921,-0.925,-0.9298,-0.9311,-0.9331,-0.937,-0.9395,-0.9433,-0.9451,-0.9477,-0.9501,-0.953,-0.9536,-0.9576,-0.9569,-0.9587,-0.9604,-0.9605,-0.961,-0.9616,-0.9611,-0.9607,-0.9607,-0.9614,-0.9613,-0.9613,0,-0.9155,-0.9211,-0.9243,-0.9261,-0.9317,-0.9331,-0.9355,-0.9393,-0.9414,-0.9447,-0.9461,-0.9497,-0.9516,-0.9543,-0.9576,-0.9577,-0.9612,-0.9621,-0.9627,-0.9627,-0.9634,-0.9633,-0.9632,-0.9644,-0.9644,-0.9644,-0.9644,0,-0.9158,-0.9182,-0.9234,-0.9253,-0.928,-0.9317,-0.9343,-0.9369,-0.9402,-0.9427,-0.9456,-0.9478,-0.9519,-0.9546,-0.9572,-0.9601,-0.9609,-0.9624,-0.9631,-0.9622,-0.962,-0.9634,-0.9634,-0.9644,-0.9644,-0.9644,-0.9644,0,-0.914,-0.9176,-0.9213,-0.9263,-0.9276,-0.9294,-0.9336,-0.9356,-0.9383,-0.9414,-0.9423,-0.9466,-0.9499,-0.9534,-0.9579,-0.9596,-0.9624,-0.9633,-0.9611,-0.9615,-0.9619,-0.9619,-0.9628,-0.9631,-0.964,-0.964,-0.964,0,-0.914,-0.9159,-0.9211,-0.923,-0.9253,-0.9283,-0.9305,-0.9342,-0.9364,-0.9409,-0.9423,-0.9458,-0.9489,-0.954,-0.9575,-0.9609,-0.9619,-0.962,-0.9625,-0.9615,-0.962,-0.9618,-0.962,-0.9618,-0.9618,-0.9618,-0.9618,0,-0.9136,-0.9153,-0.9184,-0.9221,-0.9247,-0.9278,-0.931,-0.9324,-0.9367,-0.939,-0.9425,-0.9448,-0.9494,-0.9529,-0.9568,-0.9592,-0.9612,-0.9616,-0.9619,-0.9611,-0.9598,-0.9605,-0.9608,-0.9616,-0.9616,-0.9616,-0.9616,-0.9616,-0.9127,-0.9145,-0.9185,-0.9219,-0.9247,-0.9276,-0.9297,-0.9327,-0.9357,-0.9398,-0.9418,-0.9453,-0.949,-0.9544,-0.9567,-0.9594,-0.96,-0.9605,-0.9606,-0.9607,-0.9605,-0.9593,-0.9601,-0.9602,-0.9602,-0.9602,-0.9602,0,-0.9124,-0.9151,-0.9182,-0.9226,-0.9253,-0.927,-0.9306,-0.9327,-0.9358,-0.9391,-0.9421,-0.946,-0.9494,-0.9532,-0.9568,-0.9582,-0.9593,-0.9591,-0.959,-0.9595,-0.9597,-0.9591,-0.9582,-0.9582,-0.9582,-0.9582,-0.9582,-0.9582,-0.9126,-0.9158,-0.9179,-0.9225,-0.9252,-0.9287,-0.9306,-0.9333,-0.936,-0.9404,-0.9432,-0.9457,-0.9491,-0.953,-0.9562,-0.9572,-0.9584,-0.958,-0.9592,-0.9593,-0.9595,-0.9597,-0.9591,-0.9582,-0.9582,-0.9588,-0.9588,-0.9588]},{"header":{"parameterUnit":"m.s-1","parameterCategory":1,"la1":30.2991,"la2":30.254,"lo1":-89.0895,"lo2":-89.0444,"dy":0.0017,"dx":0.0017,"nx":28,"ny":28,"refTime":"2024-05-16T21:00:00:Z","depth":0,"parameterNumber":3,"parameterNumberName":"V-component_of_WINDS"},"data":[0,0,0,0,0,0,0,0,0,0,0,0,0,0,0,0,0,0,0,0,0,0,0,0,0,0,0,0,0,0,0,0,0,0,0,0,0,0,0,0,0,0,0,0,0,0,0,0,0,0,0,0,0,0,0,0,0,0,5.0209,5.0209,0,5.0251,5.0251,5.0252,5.0262,5.0262,5.0262,5.0262,5.0302,5.0304,5.0305,0,0,0,0,0,0,0,0,0,0,0,0,0,5.0138,5.0139,5.0209,5.021,5.021,5.0251,5.0251,5.0252,5.0263,5.0262,5.0262,5.0262,5.0302,5.0303,5.0305,0,0,0,0,0,0,0,0,0,0,0,0,0,5.0173,5.014,5.0209,5.022,5.0222,5.0251,5.0251,5.0252,5.0263,5.0262,5.0262,5.0261,5.0301,5.0303,5.0305,5.0325,0,0,5.0311,5.0312,0,0,0,0,0,0,0,0,5.0171,5.0176,5.0218,5.022,5.0221,5.0251,5.0241,5.0276,5.0263,5.0247,5.0262,5.0261,5.0285,5.0289,5.0297,5.0327,5.0329,5.0311,5.0313,5.0313,5.0314,0,0,0,0,0,0,0,5.0169,5.0174,5.0225,5.0219,5.0221,5.0223,5.0228,5.0248,5.0268,5.0248,5.0249,5.0254,5.0286,5.0295,5.0298,5.0329,5.0311,5.0313,5.0314,5.0315,5.038,5.038,0,0,0,0,0,0,5.0164,5.0172,5.0224,5.0227,5.0195,5.0225,5.023,5.0242,5.0268,5.0271,5.0254,5.0255,5.0292,5.0296,5.03,5.0326,5.0313,5.0315,5.0316,5.0379,5.038,5.0381,0,0,0,0,0,0,5.0163,5.0169,5.0222,5.02,5.0207,5.0226,5.024,5.0243,5.0252,5.0272,5.0276,5.026,5.0292,5.0297,5.0319,5.0328,5.0316,5.0318,5.0379,5.038,5.038,5.0379,0,0,0,0,0,0,5.0161,5.0168,5.0176,5.02,5.0208,5.0241,5.024,5.0244,5.0256,5.0256,5.0279,5.0282,5.0292,5.0316,5.0321,5.033,5.0319,5.0378,5.0379,5.038,5.0378,5.0379,5.0381,0,0,0,0,0,5.0158,5.0173,5.0176,5.0182,5.0218,5.0242,5.0246,5.0259,5.0256,5.0264,5.0278,5.0281,5.0326,5.0319,5.0324,5.0334,5.0378,5.0379,5.038,5.0378,5.0379,5.0381,0,0,0,0,0,0,5.0148,5.0176,5.018,5.0203,5.022,5.0244,5.0254,5.0259,5.0277,5.0276,5.029,5.0295,5.0317,5.0328,5.0319,5.0356,5.0352,5.0354,5.0348,5.035,5.0351,5.0348,5.0321,0,0,0,0,0,5.0148,5.0166,5.0189,5.0207,5.0216,5.0234,5.0244,5.0253,5.0271,5.0278,5.0292,5.0309,5.0328,5.0339,5.0357,5.038,5.0386,5.039,5.0391,5.0392,5.0394,5.0409,5.0411,5.0385,5.0385,5.0385,0,0,5.0149,5.0167,5.0177,5.0206,5.022,5.0238,5.0239,5.0258,5.0272,5.028,5.0303,5.0315,5.0335,5.0358,5.0369,5.0368,5.0403,5.0393,5.0394,5.0395,5.041,5.0413,5.0415,5.0385,5.0385,5.0385,0,0,5.016,5.0175,5.0193,5.0208,5.023,5.0242,5.0247,5.027,5.0279,5.0302,5.031,5.0326,5.0356,5.0371,5.0383,5.0403,5.0407,5.0408,5.0414,5.0429,5.0431,5.0433,5.0442,5.0445,5.041,5.041,5.041,0,5.0158,5.0186,5.02,5.022,5.0233,5.0243,5.0262,5.0275,5.0302,5.0311,5.0309,5.035,5.0364,5.0392,5.0397,5.0405,5.0412,5.0405,5.043,5.0432,5.0434,5.0443,5.0446,5.041,5.041,5.041,5.041,0,5.0184,5.0203,5.0215,5.0242,5.0257,5.0275,5.0293,5.0306,5.0313,5.0326,5.0351,5.0368,5.0391,5.0398,5.0405,5.0428,5.0427,5.0427,5.0423,5.0436,5.0445,5.0448,5.041,5.041,5.041,5.041,0,0,5.0188,5.0225,5.0229,5.0243,5.027,5.0285,5.0305,5.0328,5.034,5.0359,5.0376,5.0403,5.0405,5.0418,5.0427,5.044,5.0457,5.0439,5.044,5.0443,5.0486,5.0486,5.0489,5.046,5.0461,5.0461,5.0485,0,5.0203,5.024,5.0254,5.0284,5.0303,5.0315,5.0332,5.0351,5.0364,5.0382,5.0396,5.0416,5.0415,5.0424,5.0437,5.0452,5.0466,5.045,5.0477,5.0478,5.0473,5.0494,5.0493,5.0514,5.0488,5.0488,5.0489,0,5.0225,5.0246,5.0278,5.0306,5.0314,5.033,5.0354,5.0371,5.0393,5.0402,5.0418,5.0427,5.0449,5.0444,5.0475,5.0465,5.0477,5.0486,5.0487,5.049,5.0484,5.0499,5.0521,5.0525,5.0494,5.0493,5.0493,0,5.0227,5.0263,5.0288,5.0299,5.0331,5.0342,5.0355,5.0377,5.0391,5.0412,5.0422,5.0445,5.0457,5.0475,5.049,5.0485,5.0521,5.0517,5.0529,5.0529,5.0536,5.0536,5.0562,5.0543,5.0543,5.0543,5.0542,0,5.0242,5.0262,5.0289,5.0304,5.0327,5.0344,5.0366,5.0381,5.0401,5.0419,5.043,5.0447,5.0466,5.0486,5.0498,5.0523,5.0528,5.0536,5.0539,5.0536,5.0535,5.0544,5.0543,5.0543,5.0543,5.0543,5.0543,0,5.0247,5.0266,5.0294,5.0323,5.0331,5.0347,5.0372,5.0388,5.0402,5.0426,5.0432,5.0454,5.0479,5.0496,5.0526,5.0534,5.0562,5.0564,5.0555,5.0557,5.0569,5.0568,5.0603,5.0609,5.0584,5.0585,5.0585,0,5.0256,5.0272,5.0304,5.0318,5.0332,5.0354,5.037,5.0388,5.0403,5.0431,5.0444,5.0469,5.0491,5.0529,5.0548,5.0572,5.0576,5.0586,5.0579,5.0576,5.0578,5.0577,5.0579,5.0587,5.0588,5.0588,5.0588,0,5.0271,5.0281,5.0303,5.0329,5.0348,5.0369,5.039,5.0401,5.0423,5.044,5.0466,5.0482,5.0515,5.0541,5.0568,5.0582,5.0589,5.059,5.0595,5.0591,5.0586,5.0591,5.0559,5.0589,5.0589,5.0589,5.0589,5.0589,5.0279,5.0295,5.0321,5.0346,5.0364,5.0385,5.0402,5.0419,5.0442,5.0471,5.048,5.0507,5.0532,5.0568,5.0583,5.0605,5.0604,5.061,5.0612,5.0614,5.0614,5.0582,5.061,5.061,5.061,5.061,5.061,0,5.0295,5.0313,5.0336,5.0367,5.0388,5.0394,5.0419,5.0435,5.046,5.0482,5.0504,5.0535,5.056,5.0583,5.0609,5.0623,5.0627,5.0629,5.0629,5.0633,5.0613,5.0607,5.0626,5.0626,5.0626,5.0626,5.0626,5.0626,5.0306,5.0334,5.0347,5.0385,5.0402,5.043,5.0444,5.0464,5.0482,5.0517,5.0539,5.0553,5.0576,5.0606,5.063,5.0636,5.0646,5.0648,5.0654,5.0635,5.0633,5.0632,5.0626,5.0649,5.0649,5.0673,5.0673,5.0673]}]]